Starlink 31631

operational
NORAD ID: 59459 Int'l Des: 2024-068 Owner: SPXS Country: US Constellation: starlink
LEOCIRCULAR

Starlink 31631について

説明を読み込み中...

リアルタイム位置

3D地球を読み込み中...

次回通過

高度履歴

Altitude vs Time

uPlot chart will show altitude changes over time

軌道要素

1 59459U 24068E 25304.66625505 -.00000632 00000-0 -13418-4 0 9995
2 59459 43.0044 39.4274 0001425 278.0605 82.0085 15.27603332 88830
Epoch: Oct 31, 2025 • Age: 19 hours

現在のステータス

高度 482.5 km
速度 7.63 km/s
衛星直下点 19.40°N, 148.18°W
打ち上げ日 Apr 10, 2024
運用期間 1.5 years
タイプ internet

技術仕様

分類 Payload
質量 730.00 kg
乾燥質量 700.00 kg
総質量 730.00 kg
長さ 0.30 m
直径 4.10 m
スパン 29.00 m
形状 Box + pan
製造者 SPXS
バスタイプ Starlink V2M
フェーズステータス In Orbit
所有者/国 SPXS/US

大規模コンステレーション

Loading constellations...